Starlink 3872

operational
NORAD ID: 52453 Int'l Des: 2022-049 Owner: SPXS Country: US Constellation: starlink
LEOCIRCULAR

Über Starlink 3872

Beschreibung wird geladen...

Live-Position

3D-Globus wird geladen...

Nächste Überflüge

Höhenverlauf

Altitude vs Time

uPlot chart will show altitude changes over time

Zweizeiliger Elementsatz

1 52453U 22049C 25258.36707395 .00001333 00000-0 10180-3 0 9991
2 52453 53.2162 136.1755 0001147 86.8874 273.2249 15.08849709185646
Epoch: 15. Sept. 2025 • Age: 21 hours

Aktueller Status

Höhe 543.1 km
Geschwindigkeit 7.60 km/s
Subsatellitenpunkt 42.25°N, 176.02°W
Startdatum 6. Mai 2022
Alter 3.3 years
Typ internet

Technische Details

Klassifizierung Payload
Masse 297.00 kg
Trockenmasse 220.00 kg
Gesamtmasse 297.00 kg
Länge 0.20 m
Durchmesser 2.80 m
Spannweite 9.00 m
Form Box + pan
Hersteller SPXS
Bus-Typ Starlink
Phasenstatus In Orbit
Besitzer/Staat SPXS/US

Große Konstellationen

Loading constellations...